EZY157P EGAC-EGPH

Flight info

Callsign EZY157P
Flight time 0h 32m
Altitude 17000
Route MAGEE DCT BLACA P600 TUNSO
Aircraft A319/M-SDE2E3FGIJ1RWXYZ/LB1

Departure

Time 2026-04-17 11:50
Airport George Best Belfast City Airport (EGAC)

Arrival

Time 2026-04-17 12:23
Airport Edinburgh Airport (EGPH)
Time Latitude Longitude Altitude Speed Heading
2026-04-17 11:00 54.61433 -5.87218 24 ft 0 kts 124°
2026-04-17 11:40 54.61434 -5.87218 23 ft 1 kts 124°
2026-04-17 11:41 54.61446 -5.87251 23 ft 4 kts 116°
2026-04-17 11:41 54.61454 -5.87294 23 ft 4 kts 86°
2026-04-17 11:41 54.61447 -5.87324 23 ft 1 kts 34°
2026-04-17 11:43 54.61451 -5.87319 26 ft 1 kts 34°
2026-04-17 11:44 54.61462 -5.87306 25 ft 2 kts 34°
2026-04-17 11:44 54.61480 -5.87285 25 ft 3 kts 34°
2026-04-17 11:44 54.61502 -5.87258 23 ft 4 kts 34°
2026-04-17 11:44 54.61530 -5.87225 25 ft 5 kts 34°
2026-04-17 11:45 54.61562 -5.87187 26 ft 6 kts 34°
2026-04-17 11:45 54.61599 -5.87143 24 ft 7 kts 34°
2026-04-17 11:45 54.61640 -5.87095 25 ft 7 kts 34°
2026-04-17 11:45 54.61684 -5.87042 25 ft 8 kts 34°
2026-04-17 11:46 54.61735 -5.86998 23 ft 9 kts
2026-04-17 11:46 54.61765 -5.87015 23 ft 1 kts 326°
2026-04-17 11:46 54.61765 -5.87016 23 ft 0 kts 326°
2026-04-17 11:46 54.61771 -5.87022 23 ft 2 kts 326°
2026-04-17 11:47 54.61780 -5.87041 23 ft 3 kts 312°
2026-04-17 11:47 54.61795 -5.87075 25 ft 4 kts 307°
2026-04-17 11:47 54.61814 -5.87117 23 ft 5 kts 307°
2026-04-17 11:47 54.61835 -5.87151 24 ft 4 kts 329°
2026-04-17 11:48 54.61857 -5.87161 24 ft 4 kts 359°
2026-04-17 11:48 54.61897 -5.87146 26 ft 8 kts 30°
2026-04-17 11:48 54.61961 -5.87067 24 ft 14 kts 34°
2026-04-17 11:48 54.62056 -5.86954 23 ft 19 kts 34°
2026-04-17 11:49 54.62175 -5.86812 24 ft 23 kts 34°
2026-04-17 11:49 54.62314 -5.86647 24 ft 26 kts 34°
2026-04-17 11:49 54.62455 -5.86544 27 ft 16 kts 11°
2026-04-17 11:49 54.62448 -5.86485 24 ft 9 kts 215°
2026-04-17 11:50 54.62349 -5.86608 27 ft 46 kts 215°
2026-04-17 11:50 54.61848 -5.87208 26 ft 130 kts 214°
2026-04-17 11:50 54.60985 -5.88220 481 ft 152 kts 213°
2026-04-17 11:50 54.60169 -5.89191 1521 ft 133 kts 213°
2026-04-17 11:51 54.59346 -5.89824 2215 ft 133 kts 191°
2026-04-17 11:51 54.58349 -5.89641 2601 ft 160 kts 164°
2026-04-17 11:51 54.57426 -5.88333 3101 ft 187 kts 129°
2026-04-17 11:51 54.57115 -5.86003 3548 ft 221 kts 86°
2026-04-17 11:52 54.57862 -5.83574 4227 ft 240 kts 47°
2026-04-17 11:52 54.59186 -5.81771 5025 ft 245 kts 32°
2026-04-17 11:52 54.60666 -5.80255 5873 ft 249 kts 28°
2026-04-17 11:52 54.62196 -5.78797 6688 ft 253 kts 27°
2026-04-17 11:53 54.63745 -5.77305 7526 ft 257 kts 28°
2026-04-17 11:53 54.65304 -5.75745 8337 ft 261 kts 30°
2026-04-17 11:53 54.66868 -5.74128 9097 ft 264 kts 31°
2026-04-17 11:53 54.68451 -5.72457 9854 ft 269 kts 31°
2026-04-17 11:54 54.70054 -5.70738 10594 ft 274 kts 32°
2026-04-17 11:54 54.71660 -5.68999 11311 ft 278 kts 32°
2026-04-17 11:54 54.73313 -5.67201 12031 ft 284 kts 33°
2026-04-17 11:54 54.75000 -5.65364 12747 ft 289 kts 33°
2026-04-17 11:55 54.76665 -5.63300 13470 ft 292 kts 43°
2026-04-17 11:55 54.78096 -5.60881 14200 ft 292 kts 53°
2026-04-17 11:55 54.79324 -5.58084 14929 ft 292 kts 63°
2026-04-17 11:55 54.80304 -5.55018 15635 ft 291 kts 72°
2026-04-17 11:56 54.81034 -5.51757 16318 ft 291 kts 78°
2026-04-17 11:56 54.81716 -5.48380 16752 ft 307 kts 78°
2026-04-17 11:56 54.82446 -5.44727 16853 ft 335 kts 77°
2026-04-17 11:56 54.83238 -5.40770 16864 ft 356 kts 76°
2026-04-17 11:57 54.84007 -5.36997 16872 ft 360 kts 76°
2026-04-17 11:57 54.84852 -5.32893 16872 ft 361 kts 76°
2026-04-17 11:57 54.85699 -5.28793 16865 ft 361 kts 76°
2026-04-17 11:57 54.86545 -5.24683 16866 ft 361 kts 76°
2026-04-17 11:58 54.87533 -5.20660 16868 ft 366 kts 65°
2026-04-17 11:58 54.89002 -5.17024 16868 ft 371 kts 51°
2026-04-17 11:58 54.90915 -5.13986 16871 ft 374 kts 37°
2026-04-17 11:58 54.93161 -5.11716 16864 ft 375 kts 26°
2026-04-17 11:59 54.95511 -5.09702 16869 ft 376 kts 26°
2026-04-17 11:59 54.97852 -5.07688 16882 ft 376 kts 26°
2026-04-17 11:59 55.00196 -5.05663 16886 ft 376 kts 26°
2026-04-17 11:59 55.02532 -5.03637 16887 ft 376 kts 26°
2026-04-17 12:00 55.04871 -5.01601 16885 ft 375 kts 26°
2026-04-17 12:00 55.07205 -4.99559 16886 ft 375 kts 27°
2026-04-17 12:00 55.09384 -4.97082 16871 ft 373 kts 42°
2026-04-17 12:00 55.11201 -4.93874 16877 ft 375 kts 55°
2026-04-17 12:01 55.12635 -4.89980 16857 ft 383 kts 69°
2026-04-17 12:01 55.13713 -4.85773 16593 ft 376 kts 71°
2026-04-17 12:01 55.14752 -4.81602 16199 ft 373 kts 71°
2026-04-17 12:01 55.15778 -4.77471 15917 ft 367 kts 71°
2026-04-17 12:02 55.16781 -4.73427 15723 ft 359 kts 71°
2026-04-17 12:02 55.17764 -4.69464 15522 ft 351 kts 72°
2026-04-17 12:02 55.18724 -4.65572 15330 ft 346 kts 72°
2026-04-17 12:02 55.19671 -4.61715 15126 ft 345 kts 72°
2026-04-17 12:03 55.20614 -4.57863 14939 ft 343 kts 72°
2026-04-17 12:03 55.21555 -4.54030 14743 ft 342 kts 72°
2026-04-17 12:03 55.22493 -4.50204 14550 ft 341 kts 72°
2026-04-17 12:03 55.23427 -4.46385 14359 ft 340 kts 71°
2026-04-17 12:04 55.24355 -4.42590 14164 ft 339 kts 71°
2026-04-17 12:04 55.25281 -4.38792 13975 ft 338 kts 72°
2026-04-17 12:04 55.26201 -4.35007 13789 ft 337 kts 72°
2026-04-17 12:04 55.27117 -4.31237 13603 ft 336 kts 72°
2026-04-17 12:05 55.28031 -4.27468 13411 ft 335 kts 72°
2026-04-17 12:05 55.28941 -4.23718 13167 ft 333 kts 72°
2026-04-17 12:05 55.29847 -4.19989 12916 ft 332 kts 72°
2026-04-17 12:05 55.30750 -4.16263 12670 ft 331 kts 72°
2026-04-17 12:06 55.31644 -4.12551 12438 ft 330 kts 72°
2026-04-17 12:06 55.32532 -4.08842 12189 ft 329 kts 72°
2026-04-17 12:06 55.33417 -4.05148 11938 ft 328 kts 71°
2026-04-17 12:06 55.34301 -4.01468 11692 ft 326 kts 71°
2026-04-17 12:07 55.35181 -3.97803 11449 ft 325 kts 71°
2026-04-17 12:07 55.36058 -3.94140 11195 ft 325 kts 71°
2026-04-17 12:07 55.36931 -3.90486 10949 ft 324 kts 71°
2026-04-17 12:07 55.37798 -3.86839 10698 ft 323 kts 71°
2026-04-17 12:08 55.38664 -3.83193 10451 ft 322 kts 71°
2026-04-17 12:08 55.39522 -3.79565 10195 ft 322 kts 71°
2026-04-17 12:08 55.40380 -3.75924 9950 ft 321 kts 72°
2026-04-17 12:08 55.41234 -3.72309 9765 ft 320 kts 72°
2026-04-17 12:09 55.42087 -3.68699 9636 ft 318 kts 72°
2026-04-17 12:09 55.42936 -3.65106 9509 ft 318 kts 72°
2026-04-17 12:09 55.43781 -3.61519 9394 ft 317 kts 72°
2026-04-17 12:09 55.44625 -3.57932 9256 ft 317 kts 72°
2026-04-17 12:10 55.45467 -3.54339 9136 ft 316 kts 72°
2026-04-17 12:10 55.46302 -3.50763 9005 ft 315 kts 71°
2026-04-17 12:10 55.47134 -3.47196 8884 ft 312 kts 72°
2026-04-17 12:10 55.47948 -3.43725 8763 ft 300 kts 72°
2026-04-17 12:11 55.48733 -3.40386 8629 ft 289 kts 72°
2026-04-17 12:11 55.49675 -3.37363 8503 ft 282 kts 56°
2026-04-17 12:11 55.50982 -3.34862 8374 ft 274 kts 41°
2026-04-17 12:12 55.54232 -3.31599 8130 ft 284 kts 25°
2026-04-17 12:12 55.56115 -3.29990 8007 ft 310 kts 25°
2026-04-17 12:12 55.58070 -3.28303 7874 ft 315 kts 25°
2026-04-17 12:12 55.60041 -3.26591 7743 ft 316 kts 25°
2026-04-17 12:13 55.62014 -3.24876 7623 ft 315 kts 25°
2026-04-17 12:13 55.63977 -3.23173 7488 ft 314 kts 25°
2026-04-17 12:13 55.65940 -3.21472 7369 ft 315 kts 26°
2026-04-17 12:13 55.67902 -3.19766 7221 ft 314 kts 25°
2026-04-17 12:14 55.69853 -3.18066 6957 ft 312 kts 25°
2026-04-17 12:14 55.71806 -3.16375 6698 ft 312 kts 25°
2026-04-17 12:14 55.73745 -3.14697 6448 ft 309 kts 25°
2026-04-17 12:14 55.75672 -3.13020 6196 ft 308 kts 25°
2026-04-17 12:15 55.77591 -3.11343 5941 ft 307 kts 25°
2026-04-17 12:15 55.79500 -3.09667 5700 ft 305 kts 26°
2026-04-17 12:15 55.81403 -3.08001 5457 ft 304 kts 26°
2026-04-17 12:15 55.83297 -3.06342 5198 ft 303 kts 26°
2026-04-17 12:16 55.85224 -3.04853 4945 ft 301 kts 15°
2026-04-17 12:16 55.87258 -3.04107 4699 ft 299 kts
2026-04-17 12:16 55.89299 -3.03460 4415 ft 297 kts
2026-04-17 12:16 55.91377 -3.02798 3548 ft 311 kts
2026-04-17 12:17 55.93513 -3.02117 3141 ft 308 kts
2026-04-17 12:17 55.95591 -3.01978 2994 ft 291 kts 351°
2026-04-17 12:17 55.97469 -3.02783 2988 ft 267 kts 333°
2026-04-17 12:17 55.99008 -3.04324 3025 ft 239 kts 316°
2026-04-17 12:18 56.00141 -3.06220 3004 ft 207 kts 302°
2026-04-17 12:18 56.00886 -3.08081 2996 ft 165 kts 290°
2026-04-17 12:18 56.01364 -3.09811 2952 ft 147 kts 280°
2026-04-17 12:18 56.01655 -3.11458 2882 ft 136 kts 270°
2026-04-17 12:19 56.01798 -3.13109 2787 ft 137 kts 262°
2026-04-17 12:19 56.01779 -3.14910 2662 ft 151 kts 255°
2026-04-17 12:19 56.01585 -3.16781 2485 ft 151 kts 247°
2026-04-17 12:19 56.01248 -3.18511 2311 ft 148 kts 240°
2026-04-17 12:20 56.00773 -3.20128 2114 ft 147 kts 232°
2026-04-17 12:20 56.00247 -3.21691 1914 ft 147 kts 233°
2026-04-17 12:20 55.99720 -3.23258 1721 ft 147 kts 234°
2026-04-17 12:20 55.99193 -3.24824 1521 ft 147 kts 234°
2026-04-17 12:21 55.98664 -3.26392 1337 ft 148 kts 234°
2026-04-17 12:21 55.98130 -3.27971 1139 ft 148 kts 234°
2026-04-17 12:21 55.97601 -3.29540 945 ft 148 kts 236°
2026-04-17 12:21 55.97069 -3.31114 743 ft 148 kts 235°
2026-04-17 12:22 55.96536 -3.32695 552 ft 148 kts 235°
2026-04-17 12:22 55.96006 -3.34264 358 ft 147 kts 235°
2026-04-17 12:22 55.95472 -3.35844 155 ft 149 kts 236°
2026-04-17 12:22 55.95021 -3.37172 112 ft 88 kts 238°
2026-04-17 12:23 55.94837 -3.37718 114 ft 36 kts 238°
2026-04-17 12:23 55.94697 -3.38036 113 ft 28 kts 188°
2026-04-17 12:23 55.94590 -3.37930 116 ft 13 kts 123°
2026-04-17 12:23 55.94609 -3.37830 115 ft 5 kts 59°
2026-04-17 12:24 55.94632 -3.37762 114 ft 8 kts 59°
2026-04-17 12:24 55.94666 -3.37661 114 ft 11 kts 59°
2026-04-17 12:24 55.94695 -3.37574 116 ft 13 kts 59°
2026-04-17 12:24 55.94748 -3.37418 116 ft 16 kts 59°
2026-04-17 12:25 55.94810 -3.37236 114 ft 19 kts 58°
2026-04-17 12:25 55.94881 -3.37022 113 ft 21 kts 59°
2026-04-17 12:25 55.94913 -3.36843 113 ft 11 kts 117°
2026-04-17 12:25 55.94904 -3.36718 116 ft 7 kts 61°
2026-04-17 12:26 55.94911 -3.36699 116 ft 3 kts 60°
2026-04-17 12:26 55.94901 -3.36663 115 ft 5 kts 129°
2026-04-17 12:26 55.94867 -3.36621 115 ft 7 kts 147°
2026-04-17 12:26 55.94852 -3.36603 114 ft 0 kts 145°
2026-04-17 12:27 55.94851 -3.36601 116 ft 0 kts 145°